User: anonymous   Login
Location: Champs
(48.8539°N, 2.6040°E)
Time: 00:24:16
(UTC+00:00)
Language:

CZ-4 DEB - Orbit

View from above orbital plane
View from above orbital plane
View from above satellite
View from above satellite

Ground track
Ground track

The orbit data is extracted from the following two-line orbital elements,

1 35319U 99057RX  22222.55273446  .00000170  00000-0  10175-3 0  9992
2 35319  98.6885 328.0168 0201551  24.3765  39.8243 14.08799616 66592
Epoch (UTC): 10 August 2022 13:15:56
Eccentricity: 0.0201551
inclination: 98.6885°
perigee height: 717 km
apogee height: 1009 km
right ascension of ascending node: 328.0168°
argument of perigee: 24.3765°
revolutions per day: 14.08799616
mean anomaly at epoch: 39.8243°
orbit number at epoch: 6659

The dashed part of the orbit path shows where the satellite is in the earth's shadow,  

DLR